{"data":{"norad_id":35696,"epoch":"2026-05-25T00:47:59.042400Z","epoch_age_seconds":65931,"freshness":"FRESH","line1":"1 35696U 09042A   26145.03332225 -.00000310  00000+0  00000+0 0  9995","line2":"2 35696   0.0698  91.5646 0001600 311.9978 311.5711  1.00273648 61478","mean_motion":1.00273648,"eccentricity":0.00016,"inclination_deg":0.0698,"raan_deg":91.5646,"arg_perigee_deg":311.9978,"mean_anomaly_deg":311.5711,"bstar":0,"rev_number":6147,"period_min":1436.0702225574,"perigee_km":35779.326429195,"apogee_km":35792.8189763,"semimajor_km":42164.209702748,"source":"CELESTRAK","updated_at":"2026-05-25T13:38:13.865323Z"}}